• In Czech Republic
  • List of Countries
  • For 7 days
  • Water Temperature
  • Satellite Maps
  • Weather Map
  • Weather Widgets
  • user-avatar
    Login

    Hourly Weather Sadkowo

    Today, 20 May, Sunday

    Time Temperature Precipitation Wind Pressure Humidity
    00:00 +7°C° 0 mm 2 mps 763 mmHg 77%
    01:00 +6°C° 0 mm 2 mps 763 mmHg 81%
    02:00 +6°C° 0 mm 2 mps 763 mmHg 81%
    03:00 +6°C° 0 mm 2 mps 763 mmHg 80%
    04:00 +5°C° 0 mm 2 mps 764 mmHg 80%
    05:00 +7°C° 0 mm 2 mps 764 mmHg 72%
    06:00 +10°C° 0 mm 2 mps 764 mmHg 63%
    07:00 +13°C° 0 mm 2 mps 764 mmHg 55%
    08:00 +14°C° 0 mm 2 mps 765 mmHg 48%
    09:00 +16°C° 0 mm 2 mps 765 mmHg 41%
    10:00 +18°C° 0 mm 3 mps 765 mmHg 34%
    11:00 +19°C° 0 mm 3 mps 765 mmHg 33%
    12:00 +20°C° 0 mm 3 mps 765 mmHg 32%
    13:00 +21°C° 0 mm 3 mps 765 mmHg 31%
    14:00 +21°C° 0 mm 3 mps 765 mmHg 34%
    15:00 +21°C° 0 mm 4 mps 764 mmHg 37%
    16:00 +21°C° 0 mm 4 mps 764 mmHg 40%
    17:00 +20°C° 0 mm 4 mps 764 mmHg 46%
    18:00 +18°C° 0 mm 4 mps 764 mmHg 52%
    19:00 +15°C° 0 mm 4 mps 764 mmHg 58%
    20:00 +14°C° 0 mm 4 mps 764 mmHg 59%
    21:00 +12°C° 0 mm 4 mps 764 mmHg 60%
    22:00 +10°C° 0 mm 4 mps 765 mmHg 61%
    23:00 +10°C° 0 mm 3 mps 765 mmHg 65%

    Tomorrow, 21 May, Monday

    Time Temperature Precipitation Wind Pressure Humidity
    00:00 +9°C° 0 mm 3 mps 765 mmHg 69%
    01:00 +9°C° 0 mm 3 mps 765 mmHg 73%
    02:00 +9°C° 0 mm 3 mps 765 mmHg 76%
    03:00 +9°C° 0 mm 3 mps 764 mmHg 78%
    04:00 +9°C° 0 mm 3 mps 764 mmHg 81%
    05:00 +11°C° 0 mm 3 mps 764 mmHg 76%
    06:00 +12°C° 0 mm 3 mps 764 mmHg 71%
    07:00 +14°C° 0 mm 3 mps 764 mmHg 65%
    08:00 +17°C° 0 mm 4 mps 764 mmHg 59%
    09:00 +19°C° 0 mm 4 mps 764 mmHg 53%
    10:00 +20°C° 0 mm 5 mps 764 mmHg 47%
    11:00 +21°C° 0 mm 5 mps 763 mmHg 45%
    12:00 +21°C° 0 mm 5 mps 763 mmHg 43%
    13:00 +22°C° 0 mm 5 mps 762 mmHg 42%
    14:00 +22°C° 0 mm 5 mps 762 mmHg 43%
    15:00 +22°C° 0 mm 5 mps 761 mmHg 45%
    16:00 +22°C° 0 mm 5 mps 761 mmHg 46%
    17:00 +20°C° 0 mm 4 mps 761 mmHg 52%
    18:00 +19°C° 0 mm 4 mps 760 mmHg 58%
    19:00 +18°C° 0 mm 3 mps 760 mmHg 64%
    20:00 +15°C° 0 mm 4 mps 760 mmHg 68%
    21:00 +14°C° 0 mm 4 mps 760 mmHg 72%
    22:00 +13°C° 0 mm 4 mps 760 mmHg 76%
    23:00 +12°C° 0 mm 3 mps 760 mmHg 79%

    Day after tomorrow, 22 May, Tuesday

    Time Temperature Precipitation Wind Pressure Humidity
    00:00 +12°C° 0 mm 3 mps 759 mmHg 83%
    01:00 +11°C° 0 mm 3 mps 759 mmHg 86%
    02:00 +11°C° 0 mm 3 mps 759 mmHg 86%
    03:00 +11°C° 0 mm 3 mps 758 mmHg 87%
    04:00 +10°C° 0 mm 2 mps 758 mmHg 87%
    05:00 +13°C° 0 mm 2 mps 758 mmHg 82%
    06:00 +14°C° 0 mm 2 mps 758 mmHg 77%
    07:00 +15°C° 0 mm 2 mps 758 mmHg 72%
    08:00 +16°C° 0.3 mm 2 mps 758 mmHg 68%
    09:00 +17°C° 0.3 mm 2 mps 758 mmHg 64%
    10:00 +18°C° 0.3 mm 2 mps 758 mmHg 60%
    11:00 +19°C° 0.4 mm 2 mps 757 mmHg 60%
    12:00 +19°C° 0.4 mm 2 mps 757 mmHg 60%
    13:00 +20°C° 0.4 mm 3 mps 757 mmHg 59%
    14:00 +19°C° 0.2 mm 3 mps 757 mmHg 60%
    15:00 +19°C° 0.2 mm 3 mps 757 mmHg 60%
    16:00 +19°C° 0.2 mm 3 mps 756 mmHg 60%
    17:00 +18°C° 0 mm 3 mps 756 mmHg 65%
    18:00 +17°C° 0 mm 3 mps 757 mmHg 70%
    19:00 +16°C° 0 mm 3 mps 757 mmHg 75%
    20:00 +14°C° 0 mm 3 mps 757 mmHg 81%
    21:00 +12°C° 0 mm 3 mps 757 mmHg 87%
    22:00 +11°C° 0 mm 3 mps 758 mmHg 93%
    23:00 +10°C° 0 mm 2 mps 758 mmHg 94%

    23 May, Wednesday

    Time Temperature Precipitation Wind Pressure Humidity
    00:00 +10°C° 0 mm 2 mps 758 mmHg 94%
    01:00 +10°C° 0 mm 2 mps 758 mmHg 95%
    02:00 +10°C° 0 mm 2 mps 758 mmHg 95%
    03:00 +9°C° 0 mm 2 mps 759 mmHg 96%
    04:00 +9°C° 0 mm 2 mps 759 mmHg 96%
    05:00 +12°C° 0 mm 2 mps 759 mmHg 89%
    06:00 +13°C° 0 mm 3 mps 760 mmHg 82%
    07:00 +16°C° 0 mm 3 mps 760 mmHg 76%
    08:00 +17°C° 0 mm 3 mps 761 mmHg 68%
    09:00 +19°C° 0 mm 3 mps 761 mmHg 61%
    10:00 +20°C° 0 mm 3 mps 761 mmHg 53%
    11:00 +21°C° 0 mm 3 mps 761 mmHg 51%
    12:00 +22°C° 0 mm 4 mps 762 mmHg 49%
    13:00 +22°C° 0 mm 4 mps 762 mmHg 46%
    14:00 +22°C° 0 mm 4 mps 762 mmHg 47%
    15:00 +21°C° 0 mm 4 mps 762 mmHg 48%
    16:00 +21°C° 0 mm 5 mps 762 mmHg 49%
    17:00 +20°C° 0 mm 4 mps 762 mmHg 54%
    18:00 +18°C° 0 mm 4 mps 762 mmHg 59%
    19:00 +17°C° 0 mm 3 mps 762 mmHg 64%
    20:00 +14°C° 0 mm 3 mps 762 mmHg 69%
    21:00 +13°C° 0 mm 3 mps 763 mmHg 74%
    22:00 +12°C° 0 mm 2 mps 763 mmHg 79%
    23:00 +12°C° 0 mm 2 mps 763 mmHg 81%

    24 May, Thursday

    Time Temperature Precipitation Wind Pressure Humidity
    00:00 +10°C° 0 mm 2 mps 763 mmHg 83%
    01:00 +10°C° 0 mm 2 mps 764 mmHg 85%
    02:00 +10°C° 0 mm 2 mps 764 mmHg 86%
    03:00 +10°C° 0 mm 2 mps 764 mmHg 88%
    04:00 +9°C° 0 mm 2 mps 764 mmHg 89%
    05:00 +11°C° 0 mm 3 mps 764 mmHg 83%
    06:00 +13°C° 0 mm 3 mps 764 mmHg 77%
    07:00 +15°C° 0 mm 4 mps 764 mmHg 71%
    08:00 +17°C° 0 mm 4 mps 764 mmHg 66%
    09:00 +17°C° 0 mm 5 mps 764 mmHg 60%
    10:00 +20°C° 0 mm 5 mps 764 mmHg 55%
    11:00 +20°C° 0 mm 5 mps 764 mmHg 52%
    12:00 +20°C° 0 mm 6 mps 764 mmHg 49%
    13:00 +21°C° 0 mm 6 mps 764 mmHg 47%
    14:00 +20°C° 0 mm 6 mps 764 mmHg 49%
    15:00 +20°C° 0 mm 6 mps 763 mmHg 52%
    16:00 +19°C° 0 mm 6 mps 763 mmHg 54%
    17:00 +17°C° 0 mm 6 mps 763 mmHg 61%
    18:00 +16°C° 0 mm 6 mps 763 mmHg 68%
    19:00 +15°C° 0 mm 6 mps 763 mmHg 74%
    20:00 +13°C° 0 mm 5 mps 763 mmHg 77%
    21:00 +12°C° 0 mm 5 mps 763 mmHg 79%
    22:00 +10°C° 0 mm 5 mps 764 mmHg 82%
    23:00 +10°C° 0 mm 5 mps 763 mmHg 84%

    25 May, Friday

    Time Temperature Precipitation Wind Pressure Humidity
    00:00 +9°C° 0 mm 5 mps 763 mmHg 86%
    01:00 +10°C° 0 mm 4 mps 763 mmHg 88%
    02:00 +10°C° 0 mm 4 mps 763 mmHg 89%
    03:00 +10°C° 0 mm 4 mps 763 mmHg 90%
    04:00 +10°C° 0 mm 4 mps 763 mmHg 91%
    05:00 +10°C° 0 mm 5 mps 763 mmHg 88%
    06:00 +12°C° 0 mm 5 mps 763 mmHg 85%
    07:00 +14°C° 0 mm 6 mps 763 mmHg 82%
    08:00 +15°C° 0 mm 6 mps 763 mmHg 75%
    09:00 +16°C° 0 mm 6 mps 763 mmHg 69%
    10:00 +17°C° 0 mm 7 mps 763 mmHg 63%
    11:00 +18°C° 0 mm 7 mps 763 mmHg 60%
    12:00 +18°C° 0 mm 7 mps 763 mmHg 58%
    13:00 +20°C° 0 mm 7 mps 763 mmHg 56%
    14:00 +18°C° 0 mm 7 mps 763 mmHg 57%
    15:00 +18°C° 0 mm 7 mps 763 mmHg 59%
    16:00 +17°C° 0 mm 6 mps 762 mmHg 61%
    17:00 +16°C° 0 mm 6 mps 762 mmHg 64%
    18:00 +16°C° 0 mm 5 mps 762 mmHg 68%
    19:00 +15°C° 0 mm 5 mps 762 mmHg 71%
    20:00 +14°C° 0 mm 5 mps 762 mmHg 74%
    21:00 +14°C° 0 mm 4 mps 762 mmHg 77%
    22:00 +13°C° 0 mm 4 mps 762 mmHg 79%
    23:00 +13°C° 0 mm 4 mps 762 mmHg 82%
    Show more